Location: Bayshore Village Mobile Home Park
(26.6945°N, 81.8642°W)
Time: 01:27:12
(UTC+00:00)

Cosmos 1315 Rocket - Pass Details

Date: 17 June 2021
Orbit: 528 x 568 km, 81.2° (Epoch: 05 August)

Event Time Altitude Azimuth Distance (km) Brightness Sun altitude
Rises 02:47:22 0° 344° (NNW) 2,766 7.4 -26.6°
Reaches altitude 10° 02:49:38 10° 337° (NNW) 1,864 6.4 -26.9°
Enters shadow 02:53:05 41° 285° (WNW) 825 4.0 -27.4°
